GW0944 Weather Reports


Display with metric or nautical units.
time (UTC)temp
F
wind
direction
speed
MPH
gust
MPH
rain 1hr
in
rain 24hr
in
rain mn
in
humidity
%
barometer
mb
20260506062416 60 76 1.0 2.0 0.00 0.00 0.00 80 1007.1
20260506061912 60 51 0.0 1.0 0.00 0.00 0.00 82 1007.4
20260506061409 60 112 3.0 3.0 0.00 0.00 0.00 81 1007.2
20260506060907 60 52 2.0 5.0 0.00 0.00 0.00 81 1006.9
20260506060404 60 88 3.0 3.0 0.00 0.00 0.00 81 1007.3
20260506051336 62 36 1.0 2.0 0.00 0.00 0.00 80 1007.4
20260506050834 62 85 1.0 2.0 0.00 0.00 0.00 81 1007.3
20260506050331 62 12 1.0 3.0 0.00 0.00 0.00 81 1007.2
20260506044821 63 130 1.0 1.0 0.00 0.00 0.00 81 1007.1
20260506044319 63 48 2.0 3.0 0.00 0.00 0.00 80 1007.1
20260506043816 63 143 1.0 1.0 0.00 0.00 0.00 80 1007.2
20260506043314 63 341 3.0 6.0 0.00 0.00 0.00 80 1007.1
20260506042812 63 37 6.0 8.0 0.00 0.00 0.00 80 1007.3
20260506042311 64 57 5.0 8.0 0.00 0.00 0.00 80 1006.8
20260506041809 64 357 1.0 2.0 0.00 0.00 0.00 80 1007.1
20260506041305 64 66 2.0 5.0 0.00 0.00 0.00 79 1007.0
20260506040803 64 220 1.0 2.0 0.00 0.00 0.00 80 1006.9
20260506040300 64 95 3.0 5.0 0.00 0.00 0.00 79 1006.8
20260506035756 64 9 4.0 7.0 0.00 0.00 0.00 79 1006.6
20260506035253 64 222 1.0 2.0 0.00 0.00 0.00 80 1006.4
20260506034750 65 49 2.0 3.0 0.00 0.00 0.00 79 1006.5
20260506034248 65 67 2.0 3.0 0.00 0.00 0.00 79 1006.2
20260506033744 65 44 1.0 2.0 0.00 0.00 0.00 79 1006.3
20260506033241 66 194 2.0 2.0 0.00 0.00 0.00 78 1006.1
20260506032738 66 191 1.0 2.0 0.00 0.00 0.00 79 1006.2
20260506032235 66 28 3.0 5.0 0.00 0.00 0.00 79 1006.1
20260506031732 67 90 3.0 5.0 0.00 0.00 0.00 79 1005.9
20260506031230 67 52 2.0 3.0 0.00 0.00 0.00 79 1006.0
20260506030728 67 59 2.0 5.0 0.00 0.00 0.00 78 1005.8
20260506030225 68 223 3.0 5.0 0.00 0.00 0.00 78 1005.8
20260506025721 68 34 2.0 3.0 0.00 0.00 0.00 77 1005.9
20260506025218 69 24 2.0 3.0 0.00 0.00 0.00 77 1005.5
20260506024715 69 302 3.0 6.0 0.00 0.00 0.00 77 1005.5
20260506024211 69 80 0.0 1.0 0.00 0.00 0.00 77 1005.3
20260506023708 69 24 1.0 2.0 0.00 0.00 0.00 77 1005.5
20260506023205 69 43 1.0 2.0 0.00 0.00 0.00 76 1005.1
20260506022702 69 1 1.0 2.0 0.00 0.00 0.00 76 1004.9
20260506022159 69 323 1.0 1.0 0.00 0.00 0.00 76 1004.7
20260506021657 69 131 1.0 1.0 0.00 0.00 0.00 76 1004.5
20260506021154 69 237 2.0 2.0 0.00 0.00 0.00 75 1004.3
20260506020651 69 177 0.0 1.0 0.00 0.00 0.00 75 1004.4
20260506020149 70 292 2.0 2.0 0.00 0.00 0.00 75 1004.4
20260506015646 70 261 0.0 0.0 0.00 0.00 0.00 74 1004.3
20260506015144 70 237 0.0 1.0 0.00 0.00 0.00 74 1003.9
20260506014641 70 72 1.0 2.0 0.00 0.00 0.00 74 1003.8
20260506014136 70 331 2.0 2.0 0.00 0.00 0.00 74 1004.0
20260506013635 70 337 1.0 1.0 0.00 0.00 0.00 73 1003.8
20260506013131 71 155 2.0 2.0 0.00 0.00 0.00 73 1003.9
20260506012627 71 19 0.0 1.0 0.00 0.00 0.00 73 1003.5
20260506012124 71 247 1.0 1.0 0.00 0.00 0.00 73 1003.8
20260506011622 71 235 1.0 1.0 0.00 0.00 0.00 73 1004.0
20260506011118 71 38 1.0 2.0 0.00 0.00 0.00 73 1003.5
20260506010617 72 95 0.0 2.0 0.00 0.00 0.00 72 1003.8
20260506010113 72 31 1.0 2.0 0.00 0.00 0.00 72 1003.5
20260506005611 72 54 1.0 1.0 0.00 0.00 0.00 72 1003.4
20260506005107 73 220 1.0 1.0 0.00 0.00 0.00 72 1003.3
20260506004604 73 238 1.0 1.0 0.00 0.00 0.00 71 1003.2
20260506004100 73 302 2.0 3.0 0.00 0.00 0.00 69 1002.6
20260506003557 74 36 3.0 5.0 0.00 0.00 0.00 69 1002.7
20260506003053 74 23 1.0 2.0 0.00 0.00 0.00 70 1002.7
20260506002549 75 121 1.0 2.0 0.00 0.00 0.00 68 1002.7
20260506002045 75 144 1.0 1.0 0.00 0.00 0.00 68 1002.4
20260506001541 75 23 1.0 3.0 0.00 0.00 0.00 67 1002.4
20260506001039 76 343 3.0 5.0 0.00 0.00 0.00 67 1002.4
20260506000536 76 348 3.0 3.0 0.00 0.00 0.00 68 1002.6
20260506000033 77 40 2.0 2.0 0.00 0.00 0.00 67 1002.4
20260505235531 78 26 2.0 2.0 0.00 0.00 0.00 67 1002.3
20260505235028 78 127 1.0 2.0 0.00 0.00 0.00 66 1002.3
20260505234525 79 358 1.0 2.0 0.00 0.00 0.00 65 1002.4
20260505234022 80 72 1.0 2.0 0.00 0.00 0.00 65 1002.0
20260505233519 80 293 3.0 3.0 0.00 0.00 0.00 64 1001.8
20260505233017 81 325 2.0 3.0 0.00 0.00 0.00 64 1001.8
20260505232514 81 251 3.0 3.0 0.00 0.00 0.00 64 1001.9
20260505232012 82 267 1.0 1.0 0.00 0.00 0.00 63 1002.1
20260505231508 83 293 3.0 3.0 0.00 0.00 0.00 62 1001.7
20260505231008 83 283 1.0 2.0 0.00 0.00 0.00 61 1001.3
20260505230504 84 264 4.0 5.0 0.00 0.00 0.00 60 1001.6
20260505230000 84 227 3.0 5.0 0.00 0.00 0.00 58 1001.4
20260505225457 84 233 1.0 1.0 0.00 0.00 0.00 58 1001.4
20260505224953 85 277 6.0 7.0 0.00 0.00 0.00 58 1001.0
20260505224450 86 222 3.0 5.0 0.00 0.00 0.00 57 1001.0
20260505223948 86 259 4.0 5.0 0.00 0.00 0.00 55 1001.1
20260505223444 87 300 5.0 7.0 0.00 0.00 0.00 53 1001.2
20260505222941 87 295 3.0 5.0 0.00 0.00 0.00 52 1001.2
20260505222437 87 29 2.0 3.0 0.00 0.00 0.00 51 1000.7
20260505221933 88 228 2.0 3.0 0.00 0.00 0.00 50 1000.7
20260505221431 88 338 3.0 5.0 0.00 0.00 0.00 49 1000.8
20260505220928 88 288 3.0 5.0 0.00 0.00 0.00 49 1000.8
20260505220425 88 257 5.0 7.0 0.00 0.00 0.00 49 1000.7
20260505215922 89 280 2.0 2.0 0.00 0.00 0.00 49 1000.4
20260505215420 91 277 5.0 7.0 0.00 0.00 0.00 49 1000.5
20260505214918 93 262 1.0 2.0 0.00 0.00 0.00 50 1000.6
20260505214415 93 270 0.0 0.0 0.00 0.00 0.00 49 1000.6
20260505213912 93 295 0.0 1.0 0.00 0.00 0.00 49 1000.6
20260505213410 93 227 3.0 3.0 0.00 0.00 0.00 48 1000.4
20260505212906 93 236 4.0 8.0 0.00 0.00 0.00 49 1000.4
20260505212403 91 278 1.0 2.0 0.00 0.00 0.00 50 1000.3
20260505211859 92 297 3.0 5.0 0.00 0.00 0.00 50 1000.6
20260505211357 93 245 3.0 3.0 0.00 0.00 0.00 50 1000.6
20260505210853 92 264 1.0 2.0 0.00 0.00 0.00 49 1000.6
20260505210350 93 283 3.0 5.0 0.00 0.00 0.00 51 1000.7
20260505205847 92 202 3.0 7.0 0.00 0.00 0.00 51 1000.9
20260505205345 91 198 3.0 3.0 0.00 0.00 0.00 54 1000.8
20260505204842 92 222 2.0 2.0 0.00 0.00 0.00 56 1000.9
20260505204340 92 268 3.0 3.0 0.00 0.00 0.00 55 1000.8
20260505203837 92 303 1.0 1.0 0.00 0.00 0.00 56 1001.1
20260505203333 91 248 3.0 5.0 0.00 0.00 0.00 56 1001.0
20260505202830 92 218 4.0 6.0 0.00 0.00 0.00 55 1001.0
20260505202326 92 278 3.0 3.0 0.00 0.00 0.00 56 1001.3
20260505201822 91 248 3.0 3.0 0.00 0.00 0.00 57 1001.4
20260505201320 90 236 1.0 2.0 0.00 0.00 0.00 58 1001.3
20260505200818 91 85 3.0 3.0 0.00 0.00 0.00 57 1001.2
20260505200315 90 250 1.0 2.0 0.00 0.00 0.00 58 1001.6
20260505195810 90 211 4.0 6.0 0.00 0.00 0.00 58 1001.2
20260505195308 89 183 5.0 7.0 0.00 0.00 0.00 58 1001.4
20260505194804 89 251 1.0 2.0 0.00 0.00 0.00 59 1001.7
20260505194302 89 184 4.0 6.0 0.00 0.00 0.00 59 1001.7
20260505193757 89 255 3.0 3.0 0.00 0.00 0.00 59 1001.7
20260505193255 88 240 3.0 5.0 0.00 0.00 0.00 61 1001.6
20260505192753 88 219 1.0 2.0 0.00 0.00 0.00 62 1001.8
20260505192250 88 216 4.0 5.0 0.00 0.00 0.00 61 1001.4
20260505191748 88 212 3.0 5.0 0.00 0.00 0.00 61 1001.4
20260505191247 88 150 3.0 3.0 0.00 0.00 0.00 62 1001.4
20260505190742 87 184 2.0 3.0 0.00 0.00 0.00 62 1001.6
20260505190237 87 137 3.0 5.0 0.00 0.00 0.00 62 1001.3
20260505185734 87 232 2.0 2.0 0.00 0.00 0.00 65 1001.4
20260505185230 87 278 3.0 6.0 0.00 0.00 0.00 64 1001.7
20260505184726 86 243 3.0 5.0 0.00 0.00 0.00 64 1001.9
20260505184224 86 293 2.0 2.0 0.00 0.00 0.00 67 1001.7
20260505183720 86 223 3.0 5.0 0.00 0.00 0.00 65 1001.6
20260505183218 85 207 3.0 6.0 0.00 0.00 0.00 66 1002.1
20260505182714 85 216 1.0 1.0 0.00 0.00 0.00 67 1001.9
20260505182212 84 207 3.0 3.0 0.00 0.00 0.00 67 1001.7
20260505181708 85 237 1.0 2.0 0.00 0.00 0.00 67 1001.8
20260505181206 86 206 3.0 5.0 0.00 0.00 0.00 67 1001.8
20260505180702 85 243 2.0 2.0 0.00 0.00 0.00 66 1001.8
20260505180159 86 202 3.0 3.0 0.00 0.00 0.00 66 1001.7
20260505175654 85 205 2.0 2.0 0.00 0.00 0.00 66 1002.0
20260505175151 85 237 1.0 2.0 0.00 0.00 0.00 66 1001.9
20260505174648 84 202 3.0 5.0 0.00 0.00 0.00 67 1002.0
20260505174144 84 350 2.0 2.0 0.00 0.00 0.00 68 1001.8
20260505173641 84 197 2.0 3.0 0.00 0.00 0.00 69 1001.8
20260505173138 84 219 2.0 2.0 0.00 0.00 0.00 69 1001.7
20260505172635 83 193 3.0 6.0 0.00 0.00 0.00 70 1001.9
20260505172132 83 216 2.0 2.0 0.00 0.00 0.00 70 1001.9
20260505171626 83 234 3.0 5.0 0.00 0.00 0.00 70 1001.9
20260505171124 83 197 3.0 5.0 0.00 0.00 0.00 71 1002.0
20260505170621 82 222 2.0 2.0 0.00 0.00 0.00 70 1001.9
20260505170117 82 219 3.0 5.0 0.00 0.00 0.00 70 1001.9
20260505165612 82 232 2.0 2.0 0.00 0.00 0.00 71 1002.1
20260505165108 82 205 1.0 2.0 0.00 0.00 0.00 72 1002.1
20260505164604 82 193 3.0 3.0 0.00 0.00 0.00 71 1002.2
20260505164102 82 219 3.0 6.0 0.00 0.00 0.00 72 1002.1
20260505163600 81 239 3.0 5.0 0.00 0.00 0.00 73 1001.8
20260505163057 81 236 1.0 2.0 0.00 0.00 0.00 74 1001.8
20260505162549 81 179 3.0 5.0 0.00 0.00 0.00 74 1002.0
20260505162047 80 266 3.0 3.0 0.00 0.00 0.00 75 1001.7
20260505161544 80 216 3.0 3.0 0.00 0.00 0.00 75 1001.7
20260505161041 79 207 2.0 2.0 0.00 0.00 0.00 76 1001.8
20260505160539 80 213 2.0 2.0 0.00 0.00 0.00 75 1002.0
20260505153015 78 193 1.0 2.0 0.00 0.00 0.00 78 1001.8
20260505152512 78 246 2.0 2.0 0.00 0.00 0.00 78 1001.4
20260505152008 78 216 3.0 3.0 0.00 0.00 0.00 77 1001.9
20260505151503 79 216 3.0 5.0 0.00 0.00 0.00 77 1001.7
20260505151000 78 240 2.0 3.0 0.00 0.00 0.00 78 1001.8
20260505150457 77 234 1.0 1.0 0.00 0.00 0.00 80 1001.9
20260505140427 74 357 1.0 2.0 0.00 0.00 0.00 84 1001.7
20260505124841 72 249 2.0 2.0 0.00 0.00 0.00 87 1001.0
20260505124338 71 239 2.0 3.0 0.00 0.00 0.00 87 1001.1
20260505123834 71 262 3.0 5.0 0.00 0.00 0.00 88 1001.2
20260505123330 71 253 3.0 3.0 0.00 0.00 0.00 88 1000.9
20260505122826 71 266 1.0 2.0 0.00 0.00 0.00 88 1001.0
20260505122324 71 314 2.0 2.0 0.00 0.00 0.00 88 1000.9
20260505121820 71 349 1.0 2.0 0.00 0.00 0.00 88 1001.0
20260505121318 71 248 2.0 2.0 0.00 0.00 0.00 88 1000.7
20260505120814 71 204 0.0 1.0 0.00 0.00 0.00 88 1000.7
20260505120310 71 227 2.0 2.0 0.00 0.00 0.00 88 1000.7
20260505115808 71 86 2.0 3.0 0.00 0.00 0.00 88 1000.8
20260505115306 71 201 4.0 7.0 0.00 0.00 0.00 88 1000.7
20260505114804 71 228 2.0 2.0 0.00 0.00 0.00 88 1000.7
20260505114300 71 225 2.0 3.0 0.00 0.00 0.00 88 1000.7
20260505113756 71 221 2.0 2.0 0.00 0.00 0.00 88 1000.8
20260505113253 71 226 5.0 7.0 0.00 0.00 0.00 87 1000.6
20260505112748 71 132 2.0 2.0 0.00 0.00 0.00 87 1000.5
20260505112246 71 234 4.0 6.0 0.00 0.00 0.00 88 1000.5
20260505111747 71 253 2.0 2.0 0.00 0.00 0.00 87 1000.5
20260505111243 71 284 1.0 2.0 0.00 0.00 0.00 87 1000.5
20260505110739 71 227 2.0 3.0 0.00 0.00 0.00 87 1000.5
20260505110237 71 176 2.0 3.0 0.00 0.00 0.00 87 1000.5
20260505102212 71 221 1.0 1.0 0.00 0.00 0.00 87 1000.4
20260505101711 71 5 2.0 3.0 0.00 0.00 0.00 87 1000.6
20260505101206 71 224 3.0 6.0 0.00 0.00 0.00 87 1000.7
20260505100703 72 5 3.0 3.0 0.00 0.00 0.00 86 1000.5
20260505100200 72 244 3.0 5.0 0.00 0.00 0.00 86 1000.6
20260505095655 71 241 2.0 2.0 0.00 0.00 0.00 86 1000.8
20260505095153 72 281 3.0 3.0 0.00 0.00 0.00 86 1000.3
20260505094649 72 311 3.0 3.0 0.00 0.00 0.00 86 1000.7
20260505094145 72 220 1.0 1.0 0.00 0.00 0.00 86 1000.7
20260505093642 72 355 2.0 3.0 0.00 0.00 0.00 86 1000.6
20260505093139 72 240 2.0 3.0 0.00 0.00 0.00 86 1000.8
20260505092636 72 202 1.0 2.0 0.00 0.00 0.00 86 1000.8
20260505092135 72 217 2.0 5.0 0.00 0.00 0.00 86 1000.8
20260505091631 72 234 2.0 2.0 0.00 0.00 0.00 86 1000.9
20260505091129 72 229 2.0 2.0 0.00 0.00 0.00 86 1000.8
20260505090627 72 207 1.0 2.0 0.00 0.00 0.00 86 1001.1
20260505090125 72 127 3.0 5.0 0.00 0.00 0.00 85 1000.7
20260505085622 72 255 4.0 5.0 0.00 0.00 0.00 85 1000.9
20260505085120 72 214 3.0 3.0 0.00 0.00 0.00 85 1000.8
20260505084618 72 214 3.0 3.0 0.00 0.00 0.00 85 1000.8
20260505084116 72 203 2.0 2.0 0.00 0.00 0.00 85 1000.9
20260505083613 72 231 2.0 3.0 0.00 0.00 0.00 84 1001.0
20260505083109 72 219 3.0 3.0 0.00 0.00 0.00 84 1001.0
20260505082605 72 251 3.0 8.0 0.00 0.00 0.00 84 1000.8
20260505082103 72 302 2.0 3.0 0.00 0.00 0.00 84 1001.1
20260505081559 72 159 3.0 8.0 0.00 0.00 0.00 84 1001.0
20260505081056 72 6 1.0 1.0 0.00 0.00 0.00 83 1000.9
20260505080552 72 203 2.0 2.0 0.00 0.00 0.00 83 1000.9
20260505080049 73 268 1.0 1.0 0.00 0.00 0.00 83 1001.1
20260505075544 73 253 3.0 5.0 0.00 0.00 0.00 82 1001.1
20260505075042 73 29 1.0 2.0 0.00 0.00 0.00 82 1001.1
20260505074538 73 209 3.0 3.0 0.00 0.00 0.00 81 1001.3
20260505074036 73 236 2.0 5.0 0.00 0.00 0.00 81 1001.3
20260505073533 73 262 2.0 3.0 0.00 0.00 0.00 81 1001.6
20260505073032 73 220 2.0 3.0 0.00 0.00 0.00 81 1001.6
20260505072527 73 245 1.0 1.0 0.00 0.00 0.00 80 1001.7
20260505072023 73 295 1.0 2.0 0.00 0.00 0.00 80 1001.9
20260505071519 73 262 1.0 1.0 0.00 0.00 0.00 80 1001.7
20260505071017 73 258 3.0 5.0 0.00 0.00 0.00 79 1002.0
20260505070514 73 197 3.0 3.0 0.00 0.00 0.00 79 1002.3
20260505070010 74 265 2.0 3.0 0.00 0.00 0.00 79 1002.3
20260505065506 74 217 2.0 2.0 0.00 0.00 0.00 78 1002.5